GW7436 Weather Reports


time (UTC)temp
C
wind
direction
speed
KPH
gust
KPH
rain 1hr
cm
rain 24hr
cm
rain mn
cm
humidity
%
barometer
mb
20260906114515 22 36 4.8 8.0 0.00 0.00 0.00 96 986.0
20260906113515 22 42 4.8 8.0 0.00 0.00 0.00 97 985.8
20260906112515 22 37 1.6 4.8 0.00 0.00 0.00 97 985.6
20260906111515 22 39 6.4 9.7 0.00 0.00 0.00 97 985.6
20260906110515 22 55 1.6 4.8 0.00 0.00 0.00 97 985.5
20260906105515 22 41 4.8 8.0 0.00 0.00 0.00 97 985.5
20260906104515 21 39 3.2 6.4 0.00 0.00 0.00 97 985.5
20260906103515 21 36 6.4 11.3 0.00 0.00 0.00 97 985.4
20260906102515 21 30 4.8 8.0 0.00 0.00 0.00 97 985.3
20260906101530 21 26 4.8 6.4 0.00 0.00 0.00 97 985.2
20260906100515 21 42 3.2 4.8 0.00 0.00 0.00 96 985.0
20260906095515 21 39 4.8 6.4 0.00 0.00 0.00 96 985.0
20260906094515 21 58 3.2 6.4 0.00 0.00 0.00 96 984.9
20260906093515 21 3 3.2 4.8 0.00 0.00 0.00 96 985.0
20260906092515 21 63 1.6 3.2 0.00 0.00 0.00 95 984.9
20260906091530 21 23 3.2 4.8 0.00 0.00 0.00 96 984.8
20260906090515 21 9 3.2 3.2 0.00 0.00 0.00 96 984.8
20260906085530 21 20 0.0 3.2 0.00 0.00 0.00 96 984.7
20260906084515 21 15 1.6 3.2 0.00 0.00 0.00 97 984.7
20260906083530 21 23 1.6 3.2 0.00 0.00 0.00 97 984.7
20260906082515 21 14 1.6 3.2 0.00 0.00 0.00 98 984.7
20260906081515 21 43 1.6 3.2 0.00 0.00 0.00 98 984.7
20260906080515 21 351 1.6 3.2 0.00 0.00 0.00 97 984.7
20260906075530 21 356 1.6 3.2 0.00 0.00 0.00 97 984.6
20260906074515 21 21 3.2 3.2 0.00 0.00 0.00 96 984.8
20260906073515 21 0 0.0 0.0 0.00 0.00 0.00 95 984.8
20260906072515 22 350 0.0 0.0 0.00 0.00 0.00 95 984.9
20260906071530 22 241 1.6 3.2 0.00 0.00 0.00 95 984.8
20260906070515 22 28 1.6 3.2 0.00 0.00 0.00 92 984.8
20260906065530 22 0 0.0 0.0 0.00 0.00 0.00 92 984.8
20260906064515 22 298 0.0 1.6 0.00 0.00 0.00 91 984.9
20260906063515 23 63 1.6 3.2 0.00 0.00 0.00 91 984.9
20260906062530 23 38 3.2 3.2 0.00 0.00 0.00 91 984.9
20260906061516 23 49 3.2 4.8 0.00 0.00 0.00 91 985.0
20260906060515 23 22 3.2 3.2 0.00 0.00 0.00 92 985.0
20260906055525 23 55 0.0 1.6 0.00 0.00 0.00 91 985.1
20260906054515 22 84 3.2 4.8 0.00 0.00 0.00 92 985.0
20260906053515 22 80 3.2 3.2 0.00 0.00 0.00 94 985.0
20260906052515 22 41 3.2 4.8 0.00 0.00 0.00 95 985.1
20260906051530 22 324 0.0 1.6 0.00 0.00 0.00 94 985.1
20260906050515 22 0 0.0 0.0 0.00 0.00 0.00 93 985.0
20260906045530 22 43 1.6 3.2 0.00 0.00 0.00 94 985.0
20260906044530 22 68 1.6 3.2 0.00 0.00 0.00 93 985.0
20260906043515 22 57 1.6 3.2 0.00 0.00 0.00 94 984.9
20260906042515 22 90 0.0 3.2 0.00 0.00 0.00 92 984.9
20260906041515 23 151 0.0 1.6 0.00 0.00 0.00 92 984.9
20260906040515 23 0 0.0 0.0 0.00 0.00 0.00 91 985.1
20260906035530 23 260 1.6 3.2 0.00 0.13 0.00 90 985.1
20260906034515 23 0 0.0 0.0 0.00 0.13 0.00 88 984.6
20260906033515 23 217 0.0 1.6 0.00 0.13 0.00 87 984.5
20260906032515 23 62 1.6 3.2 0.00 0.13 0.00 87 984.5
20260906031530 22 38 3.2 6.4 0.00 0.13 0.00 91 984.4
20260906030515 22 20 3.2 3.2 0.00 0.13 0.00 93 984.2
20260906025515 22 0 0.0 0.0 0.00 0.13 0.00 93 984.3
20260906024515 22 347 0.0 0.0 0.00 0.13 0.00 93 984.4
20260906023530 22 306 0.0 0.0 0.00 0.13 0.00 93 984.4
20260906022515 22 0 0.0 0.0 0.00 0.13 0.00 93 984.5
20260906021515 22 0 0.0 0.0 0.00 0.13 0.00 93 984.3
20260906020530 22 0 0.0 1.6 0.00 0.13 0.00 94 984.1
20260906015515 23 0 0.0 0.0 0.00 0.13 0.00 93 984.0
20260906014515 23 13 1.6 3.2 0.05 0.13 0.00 91 984.1
20260906013515 23 44 0.0 1.6 0.05 0.13 0.00 90 984.1
20260906012530 23 87 3.2 3.2 0.05 0.13 0.00 86 983.8
20260906011530 24 0 0.0 0.0 0.05 0.13 0.00 89 983.6
20260906010515 25 42 3.2 3.2 0.05 0.13 0.00 84 983.5
20260906005515 26 331 1.6 3.2 0.00 0.13 0.00 79 983.5
20260906004515 26 287 1.6 3.2 0.00 0.10 0.00 74 983.7
20260906003515 26 207 0.0 1.6 0.00 0.08 0.00 73 983.6
20260906002515 26 295 1.6 3.2 0.00 0.08 0.00 73 983.6
20260906001515 26 233 0.0 0.0 0.00 0.08 0.00 71 983.8
20260906000530 27 178 3.2 4.8 0.00 0.08 0.00 69 983.9
20260905235515 28 185 3.2 4.8 0.00 0.08 0.00 65 984.2
20260905234515 29 251 1.6 3.2 0.00 0.08 0.00 63 984.2
20260905233515 30 272 1.6 3.2 0.00 0.08 0.00 64 984.2
20260905232515 31 221 0.0 1.6 0.00 0.08 0.00 67 984.1
20260905231530 31 32 0.0 1.6 0.00 0.08 0.00 62 984.1
20260905230515 31 106 1.6 3.2 0.00 0.08 0.00 63 984.0
20260905225515 32 46 0.0 1.6 0.00 0.08 0.00 60 983.9
20260905224515 33 41 1.6 3.2 0.00 0.08 0.00 58 983.7
20260905223515 33 6 1.6 3.2 0.00 0.08 0.00 56 983.7
20260905222515 33 27 1.6 3.2 0.00 0.08 0.00 57 983.6
20260905221530 32 47 3.2 3.2 0.00 0.08 0.00 57 983.6
20260905220515 32 30 1.6 3.2 0.00 0.08 0.00 59 983.7
20260905215530 33 47 3.2 6.4 0.00 0.08 0.00 57 983.7
20260905214515 33 12 4.8 4.8 0.00 0.08 0.00 55 983.8
20260905213515 33 350 3.2 3.2 0.00 0.08 0.00 51 983.9
20260905212515 34 29 4.8 6.4 0.00 0.08 0.00 54 983.8
20260905211530 35 35 6.4 9.7 0.00 0.08 0.00 52 983.8
20260905210515 34 27 3.2 4.8 0.00 0.08 0.00 49 983.8
20260905205515 34 350 4.8 6.4 0.00 0.08 0.00 49 983.9
20260905204515 35 354 3.2 6.4 0.00 0.08 0.00 47 984.0
20260905203515 34 22 1.6 4.8 0.00 0.08 0.00 49 984.1
20260905202515 33 354 3.2 4.8 0.00 0.08 0.00 49 984.2
20260905201515 33 332 4.8 8.0 0.00 0.08 0.00 50 984.3
20260905200515 33 209 4.8 6.4 0.00 0.08 0.00 50 984.5
20260905195530 33 206 3.2 6.4 0.00 0.08 0.00 50 984.6
20260905194530 33 216 3.2 8.0 0.00 0.08 0.00 53 984.8
20260905193515 33 321 3.2 6.4 0.00 0.08 0.00 52 984.9
20260905192515 33 14 4.8 6.4 0.00 0.08 0.00 53 985.0
20260905191515 33 277 1.6 3.2 0.00 0.08 0.00 50 985.1
20260905190515 33 285 3.2 6.4 0.00 0.08 0.00 51 985.3
20260905185515 33 274 1.6 3.2 0.00 0.08 0.00 50 985.3
20260905184515 33 276 4.8 6.4 0.00 0.08 0.00 51 985.4
20260905183530 32 221 3.2 6.4 0.00 0.08 0.00 53 985.5
20260905182515 32 261 4.8 9.7 0.00 0.08 0.00 54 985.7
20260905181515 32 2 3.2 3.2 0.00 0.08 0.00 52 985.8
20260905180515 32 258 1.6 3.2 0.00 0.08 0.00 51 985.9
20260905175531 32 187 3.2 6.4 0.00 0.08 0.00 49 985.9
20260905174515 32 187 3.2 6.4 0.00 0.08 0.00 51 986.0
20260905173515 32 198 6.4 8.0 0.00 0.08 0.00 53 986.1
20260905172515 32 158 4.8 6.4 0.00 0.08 0.00 51 986.1
20260905171515 31 165 6.4 9.7 0.00 0.08 0.00 55 986.2
20260905170515 31 189 6.4 9.7 0.00 0.08 0.00 55 986.4
20260905165515 31 125 1.6 4.8 0.00 0.08 0.00 54 986.6
20260905164515 31 221 3.2 6.4 0.00 0.08 0.00 58 986.8
20260905163515 30 133 6.4 9.7 0.00 0.08 0.00 55 986.9
20260905162515 30 151 3.2 8.0 0.00 0.08 0.00 56 986.8
20260905161530 30 172 3.2 6.4 0.00 0.08 0.00 62 986.8
20260905160515 30 172 6.4 9.7 0.00 0.08 0.00 61 986.8
20260905155515 29 167 3.2 8.0 0.00 0.08 0.00 60 986.8
20260905154515 29 163 4.8 9.7 0.00 0.08 0.00 61 986.8
20260905153515 28 144 3.2 6.4 0.00 0.08 0.00 63 986.9
20260905152515 28 141 8.0 12.9 0.00 0.08 0.00 63 986.8
20260905151515 27 133 4.8 8.0 0.00 0.08 0.00 65 987.0
20260905150515 27 139 6.4 8.0 0.00 0.08 0.00 66 987.1
20260905145515 26 154 6.4 9.7 0.00 0.08 0.00 69 987.1
20260905144515 26 129 4.8 6.4 0.00 0.08 0.00 70 987.3
20260905143515 26 117 8.0 11.3 0.00 0.08 0.00 70 987.4
20260905142530 25 111 8.0 12.9 0.00 0.08 0.00 72 987.5
20260905141515 25 101 4.8 8.0 0.00 0.08 0.00 75 987.5
20260905140515 25 97 6.4 11.3 0.00 0.08 0.00 73 987.7
20260905135515 25 73 6.4 9.7 0.05 0.08 0.00 74 987.9
20260905134530 25 87 6.4 8.0 0.05 0.08 0.00 76 987.8
20260905133515 24 69 6.4 12.9 0.05 0.08 0.00 79 987.5
20260905132515 23 89 9.7 12.9 0.05 0.08 0.00 84 987.6
20260905131515 23 75 9.7 14.5 0.05 0.08 0.00 88 987.6
20260905130530 23 64 6.4 11.3 0.05 0.08 0.00 89 988.1
20260905125515 23 53 8.0 9.7 0.00 0.08 0.00 87 988.2
20260905124515 22 4 1.6 4.8 0.00 0.03 0.00 88 988.3
20260905123515 22 56 4.8 6.4 0.00 0.03 0.00 87 988.2
20260905122515 22 44 6.4 8.0 0.00 0.03 0.00 90 988.2
20260905121515 22 171 3.2 6.4 0.00 0.03 0.00 91 987.1
20260905120515 22 190 4.8 6.4 0.00 0.03 0.00 90 987.3
20260905115515 22 42 3.2 3.2 0.00 0.03 0.00 90 987.1